Regional Weather Roundup
Issued by NWS

Home | Current Version | Previous Version | Text Only | Print | Product List | Glossary Off
Versions: 1 2 3 4 5 6 7 8 9 10 11 12 13 14 15 16 17 18 19 20 21 22 23 24 25 26 27 28 29 30 31 32 33 34 35 36 37 38 39 40 41 42 43 44 45 46 47 48 49 50

194
ASUS45 KABQ 311110
RWRNM
NEW MEXICO REGIONAL WEATHER ROUNDUP
NATIONAL WEATHER SERVICE ALBUQUERQUE NM
500 AM MDT TUE MAY 31 2016

NOTE: "FAIR" MEANS FEW OR NO CLOUDS BELOW 12,000 FEET AGL WITH NO
       SIGNIFICANT WEATHER OR OBSTRUCTIONS TO VISION.

      THIS PRODUCT IS RELEASED AS TWO VERSIONS.  ONE VERSION NEAR
      THE TOP OF THE HOUR CONTAINING PRELIMINARY DATA FROM ALBUQUERQUE
      AND OTHER STATIONS.  A FINAL VERSION WITH ADDITIONAL DATA IS
      ISSUED ABOUT 10 MINUTES AFTER THE HOUR.

NMZ501-503-504-510>518-311200-
NORTHWEST PLATEAU/NORTHCENTRAL MOUNTAINS

CITY           SKY/WX    TMP DP  RH WIND       PRES   REMARKS
FARMINGTON     FAIR      44  22  41 N5        30.01R
LOS ALAMOS     FAIR      56  26  30 N12       30.10S
SANTA FE       FAIR      54  27  35 NE7       30.05R
TAOS           FAIR      41  21  45 N6        30.13R
ANGEL FIRE     FAIR      32  27  80 CALM      30.20F

$$
NMZ402-403-502-505>509-311200-
WESTCENTRAL MOUNTAINS/SOUTHWEST MOUNTAINS

CITY           SKY/WX    TMP DP  RH WIND       PRES   REMARKS
GALLUP         FAIR      41  24  51 E5        30.07S
GRANTS         FAIR      43  24  46 NW5       30.08R
SILVER CITY      N/A     48  41  76 N7        30.05S

$$
NMZ407-409-411-412-311200-
SOUTHERN DESERTS

CITY           SKY/WX    TMP DP  RH WIND       PRES   REMARKS
LORDSBURG      FAIR      54  48  82 S6        29.97R
DEMING         FAIR      56  52  86 N8        29.98S
LAS CRUCES     FAIR      59  54  83 S3        30.00R
HOLLOMAN AFB   FAIR      62  50  63 S13       29.96R
ALAMOGORDO     FAIR      63  45  51 S10       29.97R
T OR C         FAIR      59  49  69 NW3       29.98R

$$
NMZ519>523-311200-
CENTRAL VALLEYS/CENTRAL HIGHLANDS

CITY           SKY/WX    TMP DP  RH WIND       PRES   REMARKS
ALBUQUERQUE    MOCLDY    61  36  39 E3        30.01R
DOUBLE EAGLE   FAIR      55  36  48 SE7       30.03S
MORIARTY ARPT  FAIR      53  35  49 CALM      30.07R
CLINES CORNERS MOCLDY    56  36  47 N7        30.09R
BELEN          FAIR      56  42  58 SE6       29.99R
SOCORRO        FAIR      56  44  64 N7        29.98R

$$
NMZ524>526-539-540-311200-
SOUTHCENTRAL MOUNTAINS

CITY           SKY/WX    TMP DP  RH WIND       PRES   REMARKS
RUIDOSO          N/A     52  41  66 S6        30.12R

$$
NMZ527>531-311200-
NORTHEAST HIGHLANDS/NORTHEAST PLAINS

CITY           SKY/WX    TMP DP  RH WIND       PRES   REMARKS
LAS VEGAS      FAIR      47  31  53 N12       30.10R
RATON          MOCLDY    50  38  63 NW10      30.08S
CLAYTON        FAIR      49  45  86 CALM      30.02S

$$
NMZ532>537-311200-
EASTCENTRAL PLAINS

CITY           SKY/WX    TMP DP  RH WIND       PRES   REMARKS
TUCUMCARI      FAIR      59  48  67 W5        29.94R
CANNON AFB     FAIR      59  54  84 SW5       29.97S
CLOVIS AIRPORT FAIR      55  48  76 SW6       29.96F

$$
NMZ028-029-538-311200-
SOUTHEAST PLAINS

CITY           SKY/WX    TMP DP  RH WIND       PRES   REMARKS
ROSWELL        FAIR      58  51  78 S7        29.93F
ARTESIA        FAIR      59  59 100 N5        29.93S
CARLSBAD       MOCLDY    62  58  86 E3        29.88F
HOBBS          FAIR      55  55 100 S7        29.95F


$$




USA.gov is the U.S. government's official web portal to all federal, state and local government web resources and services.